Theta_e
303 303 302 302 302 301 300 300 301 300 300 299 297 300 298 298 294 305 310 314 312 304 297 299 298 296 299 304 302 303 300 300 301 299 301 298 301 299 298 297 296 298 296 296 295 295 291 293 291 294 295 295 297 300 299 300 299 298 295 297 297 294 288 286 287 291 293 295 297 297 297 296 293 293 294 291 288 289 286 285 285 282 283 281 282 278 284
302 302 301 301 300 300 299 299 300 300 299 297 298 297 297 299 300 302 311 313 310 300 290 291 294 297 301 301 300 303 301 300 298 298 299 298 297 296 296 298 299 295 299 296 293 296 286 293 294 292 296 293 299 298 299 300 296 296 294 292 297 287 287 287 282 282 284 287 291 291 293 293 291 289 292 293 292 290 289 287 287 281 282 282 280 274 282
303 302 301 300 300 299 299 298 298 299 299 298 297 296 300 299 302 302 305 307 305 296 299 296 295 296 296 296 295 297 298 301 300 299 297 300 298 297 295 297 298 297 298 296 296 296 293 287 295 294 294 294 300 297 299 299 296 297 296 294 297 289 288 286 279 276 274 274 276 279 283 287 290 290 289 291 290 289 286 282 284 279 283 284 280 280 287
301 301 301 300 300 299 299 298 298 298 299 298 297 299 299 295 288 296 298 303 300 300 304 301 297 294 295 293 295 296 294 297 300 300 298 299 299 298 297 298 298 295 295 292 292 292 295 291 288 291 291 294 295 298 296 297 298 295 292 287 292 287 289 288 285 281 279 282 285 290 289 287 283 285 287 288 290 289 288 286 282 278 282 281 282 283 284
301 301 301 301 300 300 299 298 298 298 298 297 296 297 298 297 291 293 289 299 297 295 300 298 298 294 297 290 294 292 293 295 295 301 293 298 296 296 296 295 292 292 292 290 290 292 291 293 291 290 291 293 294 297 297 297 295 292 292 293 292 287 284 285 286 285 285 287 286 288 287 283 284 283 283 286 286 286 284 282 279 285 281 276 284 285 283
301 301 300 300 300 300 299 299 299 298 297 297 295 293 296 287 292 297 298 293 289 290 291 296 296 297 297 293 296 292 291 292 290 296 297 297 299 292 294 294 294 292 291 291 286 288 289 289 287 291 291 291 293 292 296 294 293 293 294 296 289 285 281 285 285 283 285 286 286 287 286 286 285 285 285 284 285 285 282 283 285 284 279 277 282 284 282
301 300 300 301 301 300 299 299 298 298 297 297 294 291 294 292 291 293 295 291 293 294 294 297 295 294 295 293 293 291 290 289 292 292 291 293 292 295 286 289 292 292 293 291 287 288 283 284 289 287 288 288 288 286 289 293 292 293 291 292 291 286 282 285 285 283 284 285 285 286 284 285 285 285 285 286 285 284 284 284 285 284 282 283 283 283 283
301 301 302 301 301 301 299 299 298 299 298 297 292 291 290 286 288 287 292 292 290 290 293 294 294 291 295 289 292 292 290 288 291 293 292 287 290 295 290 290 293 292 290 291 287 289 290 287 285 288 287 286 289 286 287 287 290 290 287 289 290 287 280 285 285 281 281 284 285 286 285 284 282 284 285 285 285 284 284 284 284 284 282 283 283 282 281
301 302 302 301 301 301 300 299 299 300 299 292 290 290 293 291 291 293 289 287 288 288 290 291 291 290 292 289 291 292 290 289 291 290 295 292 288 290 289 291 289 289 288 290 290 292 290 288 287 289 288 284 289 285 285 288 283 287 285 287 286 287 282 286 283 278 278 283 283 283 283 283 281 280 282 282 282 280 282 281 284 282 280 281 281 279 279
302 302 302 301 301 301 300 299 299 299 298 293 292 287 294 292 293 293 292 287 290 286 290 290 290 286 290 291 290 290 290 292 292 287 292 291 293 292 291 291 289 288 287 287 288 290 289 289 289 290 289 290 289 290 289 288 285 284 284 286 283 284 282 279 279 275 275 280 282 280 279 278 275 277 280 282 282 283 284 284 285 284 284 279 277 278 282
302 302 302 301 301 301 301 300 299 300 298 292 291 289 292 289 290 290 290 285 288 287 287 287 287 288 291 292 290 291 290 291 292 286 286 288 288 291 292 290 287 285 286 289 291 292 290 290 289 290 289 288 287 288 288 288 288 286 284 283 283 283 281 279 281 274 275 279 279 279 274 268 270 283 285 284 281 282 280 280 282 283 284 281 282 280 280
302 302 302 301 301 301 301 300 300 300 298 296 295 292 293 293 292 292 287 282 283 288 286 284 287 288 287 290 291 289 289 289 289 291 287 288 288 288 289 288 288 282 290 291 292 290 291 291 289 289 288 288 287 287 287 286 286 288 287 284 281 280 280 279 281 275 274 277 277 273 267 269 282 284 286 285 284 283 281 281 282 283 283 283 281 280 280
302 302 302 302 301 301 301 301 301 300 300 298 296 291 295 297 290 288 287 284 281 286 283 284 287 287 288 287 288 288 288 287 287 288 289 288 286 286 287 287 286 287 292 290 290 288 284 281 283 283 283 285 286 286 285 285 284 286 286 287 283 279 278 279 277 278 277 275 273 266 266 277 278 282 283 284 282 282 281 279 282 282 283 283 282 283 282
302 302 302 301 301 301 300 301 301 301 300 299 295 294 295 294 288 287 286 282 281 286 286 285 285 284 285 286 287 285 285 285 284 285 284 287 285 285 287 287 288 292 291 290 286 283 279 280 275 276 276 280 279 277 281 284 285 284 284 285 285 283 281 279 274 278 270 273 272 271 277 276 277 278 280 281 278 279 279 274 277 283 280 281 279 280 281
301 301 301 301 301 301 301 301 301 301 301 300 297 296 294 294 292 289 289 287 280 284 286 279 282 284 285 285 286 283 283 283 282 282 284 285 283 285 286 289 290 290 290 286 280 282 278 277 271 272 272 272 267 270 278 275 281 284 284 285 285 285 279 280 275 274 278 272 270 271 271 267 273 279 279 282 282 281 281 278 274 281 280 282 281 278 277
302 301 301 301 301 301 301 301 301 301 301 301 297 296 295 296 295 292 289 286 282 277 281 286 287 285 284 284 285 282 281 281 281 281 279 280 281 284 285 287 288 289 287 285 283 279 278 273 270 271 268 268 272 268 268 276 273 280 280 281 281 283 283 281 277 274 275 272 269 268 267 269 277 274 278 280 281 282 282 277 272 279 278 280 280 278 277
302 301 302 302 302 302 301 301 301 301 301 301 296 295 294 297 294 291 288 286 285 278 287 287 287 287 284 282 284 281 282 280 282 277 277 279 281 282 282 284 286 286 285 282 280 277 274 274 274 273 272 272 265 268 273 271 269 271 279 279 278 277 278 278 274 273 273 272 269 267 271 270 275 278 280 282 283 283 278 267 268 278 277 280 280 278 278
302 302 302 302 302 302 302 302 302 301 301 302 298 295 295 298 297 294 289 286 282 281 286 287 285 283 281 282 281 284 285 283 283 283 280 280 278 280 280 281 279 286 287 278 279 276 273 273 270 270 269 276 273 275 266 273 264 270 272 275 273 274 274 276 271 272 272 273 270 272 272 278 279 279 281 282 284 279 269 264 273 278 279 281 281 280 280
301 301 301 302 301 301 302 301 302 302 301 301 299 297 296 298 297 295 290 286 284 280 287 289 290 286 289 290 285 286 285 284 283 279 279 278 279 282 281 282 284 276 283 276 278 275 273 272 277 273 271 273 275 267 273 270 269 275 275 272 271 271 272 273 274 271 270 271 269 269 272 278 280 280 281 283 277 268 268 276 280 280 280 282 281 281 281
301 301 301 301 302 302 302 302 302 301 301 301 300 294 296 298 297 295 290 284 286 283 287 287 287 285 289 285 283 282 283 284 284 281 280 276 280 280 280 275 282 280 280 280 273 278 274 271 273 275 272 272 273 276 271 271 276 272 272 274 272 272 270 269 270 272 273 272 268 267 263 276 280 279 277 280 273 274 279 278 280 283 282 282 282 282 282
301 301 301 301 301 301 301 301 301 301 302 302 300 295 294 297 297 297 295 291 286 283 284 291 290 289 289 288 288 288 286 282 283 281 283 282 283 281 273 273 278 278 275 278 271 274 276 272 274 273 276 274 274 273 268 270 271 277 276 273 273 277 270 270 272 275 268 268 266 267 274 278 282 279 274 279 280 282 283 280 278 283 282 281 281 282 282
301 301 300 300 301 301 301 301 301 301 302 301 300 297 292 296 297 297 297 294 288 285 286 293 292 290 291 292 292 291 290 289 290 289 284 282 284 282 281 280 280 279 280 282 277 275 277 276 277 273 271 273 277 272 272 270 268 272 271 274 268 277 272 275 271 275 273 270 273 278 281 280 282 282 281 282 283 284 282 282 282 281 281 283 281 281 282
300 301 301 301 300 301 300 300 300 300 300 301 300 295 292 295 295 297 296 289 290 291 293 291 292 292 293 293 295 294 294 294 293 291 290 285 282 284 282 281 279 285 281 284 278 278 278 277 273 277 274 276 273 272 271 272 270 273 271 277 275 280 280 280 277 275 279 280 280 281 280 281 281 283 283 282 283 284 284 283 281 282 283 283 281 282 282
300 300 301 302 302 300 300 300 301 300 301 302 301 296 295 296 296 294 291 289 286 284 287 289 286 283 285 286 291 294 294 293 293 293 294 290 281 281 285 285 286 284 281 283 287 281 280 278 277 279 272 275 276 272 270 269 271 274 273 273 276 278 280 277 274 277 274 269 278 278 278 280 281 281 283 284 284 283 283 282 282 282 283 282 283 282 282
300 301 300 301 301 301 301 301 301 301 301 301 300 299 297 295 296 293 288 282 283 282 278 283 284 288 292 293 294 293 293 294 295 293 292 291 288 283 281 286 289 284 281 284 286 283 280 275 276 276 271 277 278 271 277 272 272 278 271 273 275 274 281 276 276 275 273 273 277 279 280 281 281 281 281 281 282 283 283 283 283 283 283 283 283 283 282
301 300 300 300 300 300 300 300 301 300 301 301 300 295 293 293 297 295 291 290 289 285 279 278 283 293 293 291 289 292 295 294 293 293 292 291 291 290 288 289 287 289 287 287 284 280 279 277 278 277 274 274 282 275 274 277 276 279 275 274 278 279 280 273 276 274 276 278 279 279 280 280 280 281 282 282 282 282 282 283 283 283 282 282 283 283 282
300 300 300 300 300 299 300 300 301 301 301 300 299 297 295 295 297 294 290 289 284 279 281 278 283 284 287 288 292 294 294 294 293 291 291 291 290 290 289 287 286 286 284 283 284 282 280 278 277 274 277 276 281 278 278 276 277 275 274 277 280 278 273 277 276 272 272 272 275 278 273 273 278 280 281 282 283 283 282 282 282 282 281 282 281 281 280
299 299 300 300 300 300 299 299 300 301 300 300 299 296 294 291 294 296 296 293 287 281 282 281 281 283 287 283 291 293 294 293 292 291 290 290 290 289 287 286 285 283 283 281 277 278 277 275 274 279 279 280 277 275 280 279 279 275 275 276 280 276 277 277 274 273 272 277 279 280 280 279 280 281 282 283 283 283 282 281 281 282 282 282 281 280 277
300 300 299 299 299 299 300 300 300 300 299 298 292 288 288 291 294 296 296 294 291 286 285 283 284 281 278 282 290 289 292 292 291 290 289 290 289 288 287 286 284 284 283 282 280 279 277 277 281 278 276 281 278 274 276 272 272 271 275 279 280 281 282 280 279 279 279 281 281 281 280 278 280 282 282 282 283 282 281 282 282 282 280 278 278 278 278
298 299 299 299 299 299 299 300 299 299 299 296 287 286 283 284 291 293 296 295 292 288 282 280 277 280 286 283 281 287 289 291 290 290 289 288 288 288 288 286 285 286 283 281 280 276 279 279 280 282 282 285 277 276 273 273 272 274 279 280 281 281 282 282 282 280 278 282 282 282 282 282 283 283 283 283 281 281 280 280 281 279 276 275 275 274 272
298 298 298 298 298 298 299 300 300 299 299 290 286 281 279 279 287 294 296 295 294 288 283 283 279 284 280 285 284 284 287 288 288 288 288 288 288 287 288 287 286 286 281 281 280 279 280 277 278 279 283 283 280 275 273 273 271 273 278 280 280 281 281 281 283 283 283 282 283 283 283 282 283 282 282 282 280 279 278 277 273 273 272 272 271 270 270
297 298 298 299 299 299 299 299 299 299 297 289 285 284 285 287 294 293 295 296 293 286 282 278 278 278 277 282 282 284 287 288 288 288 287 288 285 288 287 286 283 286 283 279 280 280 278 280 279 279 279 282 281 275 275 273 271 273 278 279 281 281 282 282 282 283 283 283 282 280 280 280 282 280 279 277 274 274 274 272 271 270 269 268 267 267 266
297 297 297 298 298 298 298 298 298 298 293 293 296 296 293 293 297 296 296 294 290 285 285 280 275 278 277 278 280 279 285 285 284 285 282 287 283 286 283 286 285 283 286 281 278 276 280 280 280 277 280 284 278 276 273 272 274 278 279 280 281 281 282 282 283 283 283 283 283 278 277 279 280 275 273 273 272 271 271 269 268 267 266 265 264 265 264
297 297 296 297 297 297 297 297 297 296 297 291 285 286 291 293 296 297 294 289 286 286 285 279 275 275 275 282 276 280 286 280 280 282 278 284 285 284 281 282 283 277 280 278 280 279 281 280 277 278 280 278 280 275 271 274 278 279 280 280 281 281 282 282 282 282 282 282 283 282 279 275 273 273 272 271 269 268 267 266 265 264 263 264 265 266 264
296 296 296 296 296 297 297 297 293 292 287 287 287 292 294 295 296 296 291 286 281 279 280 279 279 274 274 274 274 278 285 283 278 282 278 281 286 280 281 277 280 275 277 283 278 278 277 277 281 276 274 279 276 272 274 276 278 279 280 280 281 281 281 280 280 282 281 276 274 274 272 272 273 271 272 271 268 267 266 264 264 264 265 265 265 263 262
295 296 296 296 295 295 293 292 290 288 285 285 287 294 296 296 295 294 291 289 285 280 278 278 279 274 276 271 272 278 285 279 283 282 281 281 279 283 281 279 274 278 282 279 275 278 276 281 278 272 278 273 272 275 276 279 278 279 280 280 281 281 281 280 281 277 270 269 269 269 268 269 270 271 270 269 267 265 265 264 263 263 263 264 263 262 261
295 295 296 295 292 288 285 286 291 289 288 293 295 296 296 295 290 290 288 286 284 284 280 279 276 276 277 276 279 279 281 274 282 278 278 276 275 280 278 277 273 278 277 275 276 275 278 284 277 273 273 272 274 279 280 280 280 279 280 281 282 282 282 282 276 272 267 265 265 267 267 267 266 267 268 267 266 265 263 263 263 262 261 261 261 259 259
294 294 292 287 285 282 282 285 287 292 295 295 294 289 287 288 281 283 282 280 283 282 278 282 276 279 281 278 273 281 279 277 281 275 276 279 276 273 278 275 276 277 269 273 275 281 279 277 274 273 274 278 280 280 281 281 282 282 282 282 282 279 275 272 271 271 266 267 267 265 262 262 263 265 266 265 263 262 262 262 261 260 259 259 258 258 257
292 289 287 286 283 281 282 285 294 296 293 293 291 284 281 284 280 277 276 279 280 275 280 278 276 280 278 276 278 283 279 277 275 276 272 279 275 271 276 269 276 277 272 272 275 282 272 273 274 273 272 276 277 279 281 282 282 281 277 270 270 269 269 268 270 271 271 272 270 267 267 269 267 265 264 263 262 262 261 259 259 259 258 257 256 256 256
288 283 282 283 282 285 291 293 296 292 290 284 285 283 276 281 277 272 280 274 274 276 279 272 279 280 280 277 276 275 283 279 273 273 274 276 281 272 276 273 276 273 268 269 273 278 272 269 273 272 271 275 276 280 281 281 281 275 266 265 265 264 264 264 263 263 264 262 262 261 260 259 260 262 261 261 260 259 258 257 257 257 256 255 256 255 254
285 284 283 281 284 286 287 291 291 286 284 280 277 277 276 272 276 276 274 271 272 273 280 278 279 278 281 281 280 275 282 282 280 281 278 273 280 277 272 268 278 270 269 268 275 273 272 269 270 270 272 276 277 279 280 279 276 264 261 261 262 261 261 261 260 260 260 259 257 256 255 255 255 256 256 256 256 256 256 255 255 254 254 254 254 254 255
287 286 286 286 285 287 287 283 282 280 280 281 275 270 274 274 274 271 274 270 271 274 273 277 275 276 277 280 279 281 279 280 280 280 276 270 278 273 271 272 274 268 265 272 275 271 270 266 268 268 274 276 278 273 269 269 262 259 258 259 259 259 259 258 257 257 258 257 256 256 255 255 254 254 254 253 254 253 253 253 253 253 253 254 254 254 254
291 286 286 282 283 282 284 277 280 279 272 270 269 267 271 266 269 271 271 274 276 274 275 280 279 282 280 283 278 279 278 280 276 276 274 272 279 275 271 269 267 264 269 273 271 268 266 266 266 271 275 276 274 268 263 262 260 259 258 258 258 258 258 257 256 255 255 255 255 254 253 253 253 252 252 252 251 251 251 252 252 252 252 252 252 253 253
288 284 279 279 277 278 280 269 279 272 270 272 270 266 269 267 270 271 269 272 272 273 277 274 276 277 273 280 277 275 276 278 279 275 273 276 272 269 269 265 267 271 273 269 268 264 266 269 271 274 276 267 257 259 259 258 258 257 256 256 257 257 257 256 256 255 255 255 254 253 253 252 252 252 251 250 251 250 250 250 251 252 252 252 251 251 252
280 278 277 276 273 278 274 267 278 272 268 269 273 272 272 268 271 272 272 276 275 275 278 279 278 277 275 276 277 277 279 273 280 273 269 272 268 271 267 267 270 270 267 266 266 266 266 265 272 273 272 268 262 257 256 257 257 256 255 255 256 257 257 256 256 256 255 254 253 253 252 252 252 252 251 251 251 250 250 250 251 251 251 251 251 251 252
278 275 274 270 268 274 272 269 270 266 273 275 272 274 274 275 275 274 277 277 277 278 276 278 278 278 273 275 274 273 274 273 271 271 271 270 266 266 269 271 270 265 266 265 263 263 266 270 273 274 270 265 258 256 255 255 255 255 255 254 254 254 254 254 253 254 254 254 254 253 252 252 252 251 251 251 250 250 250 250 250 250 251 250 249 249 250
277 278 275 274 270 272 273 269 269 271 274 275 277 277 277 278 277 277 274 276 278 279 279 278 278 277 272 270 269 270 269 272 269 271 271 266 266 268 272 267 263 265 262 262 263 265 268 272 274 263 256 256 255 254 253 253 254 255 254 253 253 253 253 253 253 253 254 253 253 253 253 252 251 251 251 250 250 250 250 250 250 251 250 249 250 250 250
273 277 275 267 267 270 267 271 272 269 267 270 269 269 268 271 274 273 270 272 278 278 275 275 272 273 271 275 274 271 269 269 269 269 271 269 270 264 265 263 263 265 266 265 267 271 272 273 265 257 256 255 253 252 252 252 253 253 253 253 253 253 253 252 252 252 252 251 251 251 251 250 250 250 250 250 250 251 251 250 250 250 249 249 249 249 249
275 274 271 271 268 267 268 269 270 273 271 267 267 268 270 272 275 276 271 270 275 276 277 275 274 273 269 273 269 270 266 270 265 266 268 266 264 263 262 260 262 260 265 268 270 273 271 262 256 254 252 253 252 253 253 253 252 252 252 252 252 252 252 251 251 251 250 250 250 249 250 250 250 250 250 250 249 251 252 251 250 249 249 249 249 249 249
272 269 266 262 263 266 269 268 269 271 270 268 268 269 271 273 274 270 269 272 275 275 276 277 278 273 270 269 265 268 268 270 268 269 266 264 265 266 265 260 263 263 268 270 271 266 257 255 254 252 252 251 252 252 252 252 252 252 252 252 251 251 251 250 250 250 250 250 249 250 249 249 249 250 249 249 250 250 250 249 249 249 249 249 248 248 248
270 270 268 268 268 268 268 266 268 268 269 269 270 270 270 270 272 269 270 272 274 274 273 271 271 268 268 266 266 263 265 270 266 266 265 265 266 264 264 264 267 270 269 261 260 259 257 255 255 254 251 251 252 252 252 252 252 251 251 250 251 250 250 249 249 249 249 249 249 249 248 248 249 249 249 249 248 248 248 249 249 249 249 249 249 248 248
268 266 267 266 264 264 267 269 270 271 270 270 271 268 268 268 266 266 268 270 274 271 269 270 268 267 266 265 267 268 269 267 265 265 263 266 266 264 265 269 271 268 263 261 258 255 255 255 254 252 252 252 251 251 250 248 248 246 246 246 246 247 248 249 249 249 248 248 247 246 247 247 246 247 247 247 247 247 247 248 251 250 250 251 251 251 250
Wind_Speed
10 8 7 6 7 5 4 4 7 7 2 4 3 1 4 7 4 4 3 9 12 9 9 9 9 10 9 3 3 3 2 6 7 9 7 7 7 6 7 9 8 10 10 10 10 10 6 6 10 8 8 10 7 4 1 1 3 3 6 4 2 4 2 6 12 13 14 17 16 13 10 9 9 9 8 8 12 12 13 12 6 6 5 9 9 14 5
9 9 7 6 5 4 4 3 5 6 6 1 2 4 5 6 5 3 2 6 9 13 15 12 11 12 11 10 11 7 7 9 8 10 10 8 6 10 6 8 12 10 8 9 9 6 4 4 10 9 8 7 7 3 3 0 1 4 3 4 1 3 3 7 6 7 6 10 9 8 5 2 5 6 5 5 5 4 4 2 1 7 5 12 11 15 6
9 11 10 6 7 5 5 3 3 4 5 1 2 6 4 5 1 1 3 2 6 16 10 11 13 15 16 14 14 14 9 8 12 11 11 10 10 6 7 9 6 8 5 7 9 9 11 4 5 6 5 5 4 3 2 1 2 6 5 8 4 4 6 4 7 10 12 10 8 6 2 1 3 4 9 8 10 11 7 9 8 14 6 14 9 11 5
5 6 7 7 6 6 5 5 2 3 4 4 4 4 5 9 4 6 2 3 4 5 5 5 10 12 14 15 13 14 15 8 5 9 11 13 11 11 10 3 2 10 10 9 9 10 10 9 2 4 5 3 1 2 3 4 3 4 7 3 2 1 3 6 8 11 13 12 10 11 8 8 8 6 6 10 7 7 6 8 10 13 9 11 11 13 13
9 9 10 9 6 6 5 3 2 4 2 1 3 4 5 3 5 7 8 2 7 5 6 9 9 10 11 9 5 15 16 12 5 8 6 8 12 11 11 10 10 7 10 11 12 13 13 12 11 9 12 9 8 4 2 2 2 8 3 4 0 3 9 11 15 15 18 18 20 19 18 17 16 14 16 15 15 13 13 13 18 11 12 18 10 17 13
10 10 10 10 10 8 6 5 6 4 2 3 4 5 5 5 3 4 2 5 6 10 8 10 10 11 10 10 7 12 13 12 11 6 7 1 2 8 6 13 16 15 14 9 8 9 10 10 13 11 11 11 6 8 3 2 4 3 1 5 3 4 9 12 14 15 18 19 20 19 18 16 17 18 18 19 19 15 16 17 17 14 11 18 15 18 19
11 11 11 11 10 9 7 6 5 2 1 3 4 5 3 2 3 1 3 3 1 4 3 10 14 15 14 9 13 15 14 12 11 7 4 5 5 10 9 11 11 14 13 12 10 10 8 8 8 3 1 1 1 4 5 2 5 1 2 3 3 4 10 13 14 15 16 19 19 18 17 18 18 18 20 20 19 22 22 22 20 20 20 19 18 21 24
13 12 12 11 11 9 9 8 6 6 4 3 4 4 2 4 3 3 2 3 3 1 2 5 10 12 11 12 12 14 14 16 11 3 7 6 8 9 13 12 1 4 3 5 7 9 10 3 1 2 4 2 4 7 7 8 1 3 3 4 3 6 7 8 7 9 12 17 19 19 19 17 17 18 19 20 22 22 20 20 22 20 16 21 24 23 22
12 12 12 12 11 10 9 9 9 10 5 2 4 3 2 3 3 4 3 5 3 3 4 6 7 8 11 12 11 12 15 17 14 8 1 7 10 6 10 2 3 0 2 7 10 8 1 1 2 2 1 7 5 1 1 6 2 4 1 4 3 5 8 5 4 10 10 9 10 12 12 12 14 14 17 21 21 19 16 17 14 17 18 20 24 18 17
12 13 13 13 12 12 11 10 9 9 5 3 3 3 2 0 1 1 3 4 6 5 4 6 6 11 14 15 16 13 16 15 12 11 3 4 3 2 2 4 4 8 8 10 8 5 4 6 5 4 3 2 1 2 2 2 3 2 1 0 3 3 4 4 4 8 7 8 9 7 4 7 12 15 18 18 18 18 19 18 17 18 19 18 15 15 4
14 14 14 13 13 13 13 12 10 11 6 3 3 1 1 1 1 2 3 3 4 6 6 7 11 6 6 11 8 4 4 2 8 13 6 5 2 3 4 6 9 10 10 1 8 6 6 3 2 1 2 5 5 5 6 7 8 9 8 6 6 8 9 9 7 6 3 8 9 3 3 12 13 1 3 8 14 14 15 15 15 16 14 9 1 1 2
16 15 14 15 14 14 13 14 12 13 9 5 3 2 0 1 0 2 3 6 6 7 7 7 10 5 5 5 5 6 6 9 8 3 9 5 5 3 4 2 5 6 7 6 4 5 2 1 3 4 7 7 8 10 12 13 13 11 11 12 10 10 9 11 7 10 11 7 7 9 15 14 2 5 3 8 7 5 8 16 18 16 12 11 8 4 3
16 17 15 14 15 15 14 14 14 13 12 5 4 3 2 0 1 2 3 5 5 8 8 7 4 2 4 5 5 5 2 6 5 4 4 8 7 5 2 3 4 3 7 5 4 1 3 7 8 10 12 10 11 13 17 18 16 15 13 13 13 11 11 8 9 8 9 10 10 13 14 2 3 3 2 3 5 8 9 12 12 12 12 13 13 6 4
18 18 18 17 17 17 16 16 15 14 14 9 6 4 4 4 3 3 3 3 6 5 6 2 4 6 7 8 8 7 6 4 4 2 4 3 6 6 4 3 3 4 2 3 1 3 5 5 6 3 5 6 7 9 14 16 16 16 16 15 14 15 11 9 11 6 12 10 13 17 9 14 11 8 5 8 7 7 7 11 5 1 1 3 1 2 6
19 18 18 19 19 18 17 16 16 16 16 13 7 5 5 6 4 4 1 3 3 3 5 6 6 10 10 8 9 7 6 6 5 4 2 4 1 2 2 4 2 3 3 4 3 6 5 2 1 3 4 4 4 3 3 3 5 10 11 12 12 13 12 7 10 7 10 13 12 13 11 13 6 1 4 9 6 5 4 4 6 4 6 4 5 6 5
17 18 19 20 20 19 17 16 17 17 17 16 9 7 6 6 5 3 3 2 2 4 6 9 1 10 9 8 10 10 7 7 7 4 3 4 3 4 5 4 1 2 3 3 3 3 3 3 3 3 5 3 3 3 3 3 2 3 2 3 4 7 11 12 12 10 9 12 13 12 12 10 2 3 3 2 3 2 3 4 10 2 1 3 6 6 5
18 18 17 16 16 18 19 19 19 19 19 19 10 8 7 8 7 6 4 3 3 6 6 2 6 7 6 4 5 6 7 7 7 5 4 7 7 4 3 2 1 3 7 4 5 3 3 5 4 4 3 4 2 3 1 2 2 0 5 5 2 4 6 8 11 13 12 11 11 13 5 4 2 2 2 3 2 3 3 13 11 1 1 3 5 7 6
19 19 20 20 20 19 19 17 16 17 18 21 12 8 7 9 9 7 4 4 4 4 3 6 9 8 8 5 6 5 5 2 2 0 0 2 3 2 3 3 2 4 5 6 6 5 6 6 7 6 6 2 5 4 3 2 2 3 3 5 2 3 4 8 13 12 13 15 12 10 10 6 5 4 3 5 2 1 7 13 5 2 3 4 5 6 6
20 20 20 21 21 22 21 19 20 19 18 21 13 6 6 9 11 10 6 5 5 4 4 10 8 5 2 5 4 5 4 6 6 3 3 3 2 4 6 1 2 2 7 5 6 7 7 6 3 3 4 4 5 3 2 2 3 3 4 5 2 2 2 5 9 13 13 12 14 12 11 7 5 2 8 7 4 6 10 3 2 7 3 4 4 4 4
20 19 19 20 20 20 21 21 22 22 22 20 13 9 7 10 11 13 11 8 5 7 5 7 9 11 6 7 6 5 4 4 6 6 5 4 4 8 4 2 5 3 6 6 4 5 6 8 7 4 7 6 4 3 2 5 4 3 3 5 6 5 4 5 9 6 7 9 11 10 11 2 4 5 4 4 7 6 3 1 0 3 4 5 5 6 8
20 20 21 20 21 21 21 21 22 22 22 22 18 10 8 9 11 13 11 8 6 7 9 8 7 11 10 9 9 9 11 8 9 8 6 2 8 6 5 5 8 6 7 7 7 7 6 7 8 6 4 4 4 4 5 2 3 8 7 5 6 2 8 9 9 5 10 10 10 6 4 3 7 7 4 3 6 7 5 1 3 5 6 5 5 8 9
21 21 21 22 21 22 21 21 22 21 21 23 20 8 9 8 9 9 10 7 9 10 2 3 9 11 12 11 10 9 10 10 10 7 5 3 7 8 1 4 6 5 3 3 2 1 2 2 2 3 7 6 5 8 5 5 8 2 4 1 7 9 12 8 11 3 9 9 10 7 8 2 5 6 7 7 9 7 5 4 7 8 10 8 8 11 11
21 21 21 21 22 22 22 22 21 22 23 23 18 10 10 7 7 8 8 9 5 4 1 2 4 7 10 12 12 12 12 10 9 8 8 7 7 9 8 4 5 4 1 5 5 4 3 6 6 4 4 7 8 8 5 9 8 4 6 8 8 7 12 9 9 10 11 15 15 13 13 17 15 12 10 14 17 15 11 9 8 9 10 8 9 11 11
22 22 22 21 20 21 21 21 21 21 21 22 17 9 8 8 7 7 5 6 6 9 6 6 7 11 13 15 15 11 11 11 13 12 9 7 9 8 8 9 4 3 2 6 7 6 5 2 4 5 7 5 4 9 10 10 11 8 7 9 8 13 15 10 10 11 12 14 12 14 18 19 16 15 15 13 12 11 11 10 12 12 11 11 11 11 10
21 21 22 21 20 21 21 21 21 21 21 23 19 12 7 5 8 11 10 8 8 8 7 6 15 16 9 13 9 11 15 12 11 12 11 11 12 11 12 11 11 9 8 8 2 1 1 3 4 5 9 5 6 9 8 10 10 10 10 10 8 10 14 14 15 17 16 16 15 16 15 16 16 13 12 14 14 14 13 12 11 12 11 11 12 8 9
21 22 22 22 22 23 24 23 23 21 22 22 18 9 9 9 10 11 8 4 1 2 8 10 6 5 9 9 14 18 14 13 13 14 15 14 15 16 15 5 0 8 5 3 5 6 4 4 4 6 8 7 8 10 12 11 10 9 12 13 13 8 5 8 6 11 13 16 19 20 19 18 19 18 16 15 14 14 15 15 14 13 13 11 9 8 9
21 22 22 21 21 22 23 22 21 20 22 22 14 9 9 7 10 14 11 9 5 4 8 9 4 0 3 15 11 10 13 13 13 15 15 16 16 14 11 11 9 7 6 3 4 4 3 6 5 8 10 7 5 10 9 10 13 11 12 15 14 11 15 13 11 12 13 13 14 13 10 10 12 12 11 12 13 14 15 14 11 11 11 10 9 8 5
20 21 19 19 21 22 23 23 21 21 24 24 15 8 5 5 8 11 10 11 14 7 1 4 2 2 3 4 8 7 11 13 14 14 15 18 18 14 11 10 8 5 6 6 5 6 7 9 11 7 5 4 8 10 11 11 9 10 10 14 13 14 18 11 12 12 12 14 16 13 14 15 15 15 13 12 11 12 13 13 12 12 11 8 8 6 4
19 19 20 21 22 23 20 20 21 23 23 19 2 4 1 5 6 10 12 10 9 6 3 1 3 1 4 1 6 10 10 12 14 14 15 16 17 16 16 14 11 11 9 8 6 7 9 10 7 6 7 5 5 6 6 9 10 13 15 17 17 17 16 14 14 16 17 17 16 14 13 14 15 16 15 16 10 8 9 10 11 10 2 2 3 5 7
20 19 19 20 21 22 21 21 22 24 21 5 5 1 2 4 9 12 14 10 7 2 5 5 6 4 2 2 3 6 9 12 12 15 15 13 15 16 16 15 14 14 12 11 10 9 10 10 9 9 8 8 7 3 5 5 11 12 16 18 19 18 17 15 16 17 17 16 16 16 15 16 15 15 16 7 4 4 7 9 8 2 3 2 3 2 1
21 20 20 20 21 22 22 21 21 21 17 3 4 3 3 5 8 15 20 14 11 7 2 1 6 1 1 1 2 8 12 13 13 14 16 15 13 13 12 11 12 13 11 12 10 12 6 6 9 11 13 14 9 5 7 8 10 11 18 19 18 18 16 17 17 17 18 17 17 16 15 16 16 14 13 9 5 6 6 3 3 4 4 3 2 2 2
23 21 21 21 20 21 21 22 23 21 11 8 9 7 3 1 2 13 20 16 11 6 5 4 4 3 2 2 2 2 10 13 11 9 10 11 12 11 11 13 11 12 11 9 9 4 8 9 10 12 12 14 12 4 6 10 14 16 15 16 16 15 15 15 16 17 17 17 14 12 14 16 15 14 10 4 6 5 4 5 5 5 4 3 4 4 3
22 24 23 20 20 20 20 22 24 17 8 10 15 9 6 11 4 17 16 9 5 3 3 4 5 2 3 4 3 2 6 7 9 10 10 11 11 10 11 11 10 7 8 7 6 6 4 8 10 14 14 11 7 3 6 12 15 16 18 18 15 15 15 15 15 15 15 14 13 12 13 14 8 5 6 5 5 5 4 5 4 4 3 3 3 2 3
20 21 23 23 21 20 20 21 22 21 15 4 3 9 10 6 8 19 13 8 4 2 3 4 3 4 3 2 2 5 11 9 7 11 6 8 6 8 6 7 8 5 6 9 4 2 4 8 11 10 3 9 8 4 7 11 14 17 18 17 17 16 16 17 16 15 15 14 12 11 4 4 6 4 4 4 4 5 5 4 4 4 3 3 2 3 3
18 19 20 23 22 19 19 17 10 8 6 6 6 8 7 16 14 18 16 7 4 4 3 3 2 5 5 3 5 6 8 7 7 10 7 7 9 8 6 4 6 6 5 6 4 9 10 10 10 7 9 7 8 8 8 8 13 16 17 18 18 17 15 16 15 16 10 2 2 1 2 1 3 3 4 4 5 4 5 3 2 3 3 3 4 4 3
17 16 17 18 20 12 5 6 5 6 6 5 5 5 14 17 18 15 17 9 4 5 5 4 6 8 7 8 10 4 8 7 7 7 6 4 2 5 6 5 6 7 4 7 7 9 11 9 6 8 7 6 10 9 13 15 17 19 19 18 17 16 16 17 17 7 5 3 4 4 3 1 4 4 3 4 5 3 4 3 3 2 3 3 4 4 2
15 15 14 12 7 2 5 6 4 7 4 4 6 10 15 11 2 2 3 3 2 1 3 7 8 9 13 10 2 3 8 8 9 6 7 5 5 4 5 4 6 3 3 5 6 10 12 8 8 8 8 12 14 15 16 16 16 16 19 19 16 14 15 14 1 7 4 4 3 2 2 2 2 2 3 5 5 4 4 4 5 5 5 5 3 2 3
13 12 4 1 3 4 3 7 4 7 9 14 15 6 2 6 4 5 2 4 2 3 3 2 7 5 3 7 7 8 8 7 8 6 5 5 5 3 4 4 5 5 6 7 10 7 4 6 8 11 13 13 15 14 13 13 15 15 16 16 15 9 3 3 5 5 3 2 5 4 1 2 4 4 5 5 5 5 4 2 2 2 2 2 2 2 2
7 4 2 4 4 5 6 1 10 19 11 7 3 4 5 3 4 4 4 2 2 4 3 6 8 9 9 10 4 7 5 9 10 7 6 8 6 5 5 5 6 6 6 4 6 11 7 8 8 9 11 11 12 18 17 15 15 13 7 1 1 3 3 4 3 6 8 9 4 1 3 5 7 7 5 4 3 3 3 3 3 2 3 2 2 3 4
3 5 4 3 5 5 2 6 19 12 5 4 4 3 4 3 5 4 4 4 3 2 4 7 8 9 13 13 12 8 4 9 10 11 9 7 3 4 4 3 3 4 6 9 5 6 6 6 6 7 11 9 13 18 17 13 14 7 2 2 4 5 3 4 3 4 5 6 6 4 5 4 4 2 4 4 4 5 4 3 3 2 2 3 3 4 6
4 2 1 3 1 1 2 5 4 2 3 4 2 2 2 4 3 1 3 5 5 3 4 5 6 8 8 6 9 8 6 3 1 2 4 5 3 4 3 4 2 3 3 6 2 2 2 2 5 11 11 11 14 16 14 11 7 4 4 4 4 4 5 6 6 5 4 5 5 5 5 5 6 5 4 3 3 2 2 2 2 3 3 4 5 5 4
4 3 1 3 2 1 2 1 1 2 2 2 4 4 5 3 2 1 2 6 7 3 3 6 11 14 13 13 9 7 3 2 2 3 4 4 5 4 4 1 1 4 5 2 3 2 2 4 6 5 8 14 14 4 2 4 3 4 5 5 5 4 5 5 6 6 5 5 5 5 4 5 5 4 3 2 1 2 2 3 3 3 4 4 4 5 6
7 2 2 1 2 2 2 4 4 2 4 3 3 3 2 3 5 5 3 2 1 1 2 2 1 3 4 2 1 2 2 3 3 2 2 4 3 1 3 3 2 4 4 3 3 3 5 6 7 9 10 11 7 4 1 3 6 6 6 5 4 4 5 6 6 5 5 5 5 5 4 4 3 2 1 2 1 2 3 4 4 3 3 3 4 5 5
4 3 2 1 2 4 3 8 3 2 4 3 5 8 6 4 4 4 3 5 4 4 6 8 7 10 8 5 4 3 2 2 2 1 0 1 3 4 3 4 6 0 3 1 3 6 6 4 7 10 9 1 3 3 3 4 5 6 6 6 5 6 6 6 6 6 5 4 4 4 3 3 3 1 1 1 3 5 5 5 3 3 4 3 4 5 5
3 2 3 3 4 3 4 4 3 5 8 7 5 7 7 11 8 8 6 4 4 7 9 9 9 10 7 3 3 0 3 4 3 4 3 3 2 2 4 3 3 2 4 4 4 2 1 6 8 8 7 5 3 4 3 4 4 5 7 6 5 5 5 5 5 4 4 3 3 3 2 1 1 1 1 2 2 2 2 5 3 2 4 4 5 6 6
7 5 4 3 5 4 5 3 2 5 3 4 5 7 7 8 4 5 2 3 4 6 9 10 8 8 5 1 5 5 3 3 3 3 2 1 3 5 2 1 1 2 3 2 4 8 10 9 6 8 4 1 6 6 6 5 5 5 7 6 5 5 4 5 4 4 3 4 3 3 1 1 1 1 2 2 2 2 3 4 4 4 5 5 6 6 6
2 1 2 2 4 4 1 7 6 3 1 3 5 6 7 4 2 3 2 3 5 4 4 3 3 2 6 4 2 1 0 1 4 2 3 2 4 1 1 3 3 4 5 6 6 6 6 10 8 3 4 5 8 8 7 6 5 5 5 5 6 5 5 4 4 3 3 3 2 1 1 2 1 1 2 3 3 3 3 3 5 6 5 7 6 5 6
5 1 2 4 5 3 6 5 1 1 1 1 1 2 1 1 3 3 2 2 2 5 7 7 5 3 2 1 1 4 3 1 3 2 2 2 3 2 2 1 3 2 3 5 10 6 9 4 2 4 4 5 7 11 8 6 6 6 6 6 6 5 5 4 3 3 3 2 2 2 2 1 1 1 2 4 5 5 3 4 4 4 4 5 5 6 6
1 2 5 3 1 1 1 2 1 6 2 1 0 0 1 3 5 3 3 1 4 6 5 5 5 6 2 3 2 2 2 2 4 3 3 1 4 5 6 5 4 4 4 6 8 9 4 3 3 5 5 7 6 6 6 6 6 8 7 6 6 5 4 3 3 3 3 2 2 2 2 1 1 1 2 3 4 5 4 3 4 5 5 6 6 7 7
2 1 2 2 1 1 0 0 0 4 2 1 1 2 1 3 3 1 1 3 3 6 4 5 2 3 2 3 2 2 2 2 3 1 3 5 4 2 2 3 5 5 6 6 6 2 3 3 5 6 5 8 8 9 8 6 6 6 5 5 4 4 3 4 3 3 3 2 2 1 0 0 2 1 2 3 4 4 6 7 7 6 7 6 6 7 7
1 0 1 1 3 1 5 3 5 5 4 5 5 3 2 2 0 1 0 1 6 7 5 5 3 3 3 1 2 3 3 3 4 5 4 4 2 2 5 8 9 6 1 3 3 3 3 4 4 5 8 7 6 6 6 7 7 7 6 5 5 4 3 3 3 2 2 2 1 1 2 2 2 1 2 3 4 5 6 7 7 7 6 7 6 7 8
3 3 3 1 0 1 1 1 2 1 1 1 1 1 2 1 1 2 0 1 4 9 8 3 4 3 3 7 4 1 2 2 3 2 2 4 3 4 5 8 3 2 2 1 1 2 2 2 2 4 4 4 6 7 6 7 6 6 6 5 5 4 3 3 3 2 1 0 1 2 2 2 1 2 2 3 4 4 4 5 4 3 4 4 6 7 7
Wind_Direction
151 149 153 141 132 129 117 111 83 62 98 171 159 163 195 208 225 36 204 180 167 167 214 202 208 218 231 215 246 175 193 220 218 216 190 204 212 223 220 220 232 239 245 248 249 234 252 228 245 246 242 255 279 38 357 67 268 308 271 264 194 91 255 248 254 261 266 269 272 266 257 240 255 243 248 251 249 245 257 268 315 286 302 284 270 258 267
163 151 145 150 136 128 119 115 96 80 45 61 163 203 210 207 199 157 169 201 200 186 201 212 213 224 225 232 239 206 228 233 214 222 220 226 208 228 226 247 236 254 236 244 253 248 268 239 246 250 249 259 86 14 48 281 237 242 316 283 55 293 216 245 279 281 273 275 264 248 76 311 241 267 286 321 332 347 309 328 228 270 223 256 267 266 273
195 166 150 157 166 146 134 125 127 95 67 70 261 205 205 183 160 209 158 133 219 211 209 219 215 219 226 227 234 234 235 222 237 233 233 232 240 237 242 240 253 244 249 262 253 247 246 268 279 267 264 262 98 110 29 339 255 58 58 68 19 249 277 286 275 271 271 268 261 279 281 105 25 335 295 275 276 281 292 268 267 267 228 228 235 267 274
173 193 192 189 187 172 157 154 165 106 63 341 242 262 189 189 197 179 205 212 255 269 289 277 235 225 225 233 234 239 240 209 160 216 242 238 238 240 254 259 259 255 246 245 245 245 242 236 254 251 237 217 50 75 63 54 88 112 122 131 171 266 277 259 259 262 264 266 285 300 314 292 278 278 267 271 270 272 267 282 271 253 271 269 268 273 278
204 208 213 228 215 198 185 163 178 156 101 8 293 252 237 244 215 166 186 165 249 241 230 229 230 230 219 231 198 233 233 244 224 183 235 227 238 241 238 238 240 232 239 245 253 252 253 243 243 248 261 268 267 136 170 296 76 139 132 180 318 267 269 259 261 258 260 267 271 276 279 279 278 278 274 273 264 257 254 248 256 271 291 272 257 266 280
222 225 225 214 207 204 198 206 189 184 143 285 253 219 211 206 218 181 128 206 184 209 221 221 225 240 233 237 229 242 239 224 232 191 229 356 270 225 238 239 239 246 242 238 243 250 250 248 251 253 257 267 270 273 227 219 107 163 212 163 247 275 271 272 273 270 271 271 271 272 273 271 275 274 273 270 270 267 257 252 261 270 253 268 281 289 285
223 220 216 215 219 210 200 214 216 139 130 259 251 204 228 333 348 44 347 181 282 222 34 197 213 229 225 240 237 240 235 236 231 227 191 212 226 228 236 235 230 235 237 235 243 242 251 244 239 237 303 45 9 282 291 160 90 205 161 180 231 267 256 262 261 270 267 269 269 272 273 274 271 266 265 266 265 263 264 270 273 269 269 277 282 276 275
218 219 219 218 218 219 208 203 199 165 175 256 241 253 228 185 200 164 55 13 51 20 150 176 193 217 215 228 229 239 238 243 229 104 198 216 222 216 237 240 303 47 26 232 231 236 257 322 234 40 90 284 266 279 275 282 152 85 289 297 261 244 265 281 298 280 272 273 274 272 274 276 273 271 266 263 261 263 267 272 268 272 274 267 265 268 269
219 223 224 223 220 211 215 213 191 171 215 233 234 236 309 337 7 336 155 192 182 97 194 196 202 214 220 228 225 235 236 242 239 224 101 243 236 214 222 184 122 76 221 258 251 259 342 2 330 26 339 271 333 37 289 82 261 324 321 266 303 258 269 289 288 270 265 260 274 282 280 276 272 268 261 255 256 262 258 256 261 270 271 273 279 273 275
221 222 222 221 219 218 215 218 210 175 202 248 255 229 134 59 328 240 296 224 161 151 167 206 201 225 226 231 231 235 233 242 231 234 133 66 23 317 282 230 245 245 251 252 266 56 73 72 75 65 65 5 275 307 282 305 277 286 204 263 266 261 289 295 299 280 252 264 280 304 354 311 273 246 241 253 259 258 262 263 264 259 270 275 267 272 310
222 219 219 220 222 215 214 211 210 176 200 210 229 253 168 212 172 193 261 196 188 176 168 194 209 228 233 219 229 71 118 105 195 221 201 109 88 51 201 220 239 245 256 108 83 79 74 73 86 247 271 258 267 262 258 247 232 237 251 256 250 246 249 260 268 264 282 275 283 306 268 252 248 224 180 242 257 263 264 265 268 271 266 276 308 292 134
219 219 218 217 219 221 216 215 213 186 201 222 243 241 120 129 184 291 222 213 211 167 192 201 213 202 183 186 207 202 205 210 218 309 243 154 160 117 137 168 195 233 97 120 99 99 115 73 240 261 248 251 245 244 243 250 248 237 239 244 256 253 249 253 252 260 268 281 289 269 245 249 28 114 237 259 284 288 261 264 263 265 266 274 274 227 178
223 223 220 219 221 222 220 217 220 203 198 210 212 217 142 305 253 231 244 241 220 181 193 209 82 125 154 148 179 199 145 72 82 59 68 141 173 157 197 179 221 158 106 104 123 354 298 284 277 267 261 246 241 241 242 242 246 240 232 227 235 242 243 254 252 246 271 257 243 248 253 132 256 215 219 306 282 256 275 269 257 260 259 263 266 289 143
216 216 217 218 219 219 219 216 215 214 210 208 215 218 168 182 182 215 215 223 238 209 197 133 155 173 167 174 166 136 128 149 112 70 161 194 179 181 175 157 86 95 139 136 188 249 269 252 262 252 251 231 245 248 246 241 240 244 242 235 230 242 253 249 263 237 252 250 249 250 286 280 255 255 226 208 230 255 258 280 292 27 236 259 234 151 154
219 218 218 218 216 216 216 216 213 211 210 205 226 212 185 195 213 227 281 293 228 191 189 217 202 183 179 179 160 157 180 180 171 195 110 40 101 278 109 90 100 162 179 172 213 215 214 261 276 258 267 224 234 246 357 267 234 232 245 244 237 230 231 242 259 247 240 256 263 268 263 261 273 16 42 29 30 9 344 316 267 254 248 209 170 158 149
229 227 224 222 219 217 216 215 215 210 207 207 217 218 207 190 201 225 236 238 240 239 239 213 323 167 181 187 190 194 198 193 206 170 158 185 179 133 87 85 73 175 190 198 235 220 232 194 219 227 244 229 315 64 281 132 309 141 55 268 264 257 245 242 241 260 259 253 259 258 260 268 99 257 42 58 76 35 1 266 278 272 203 176 142 141 142
236 233 231 228 228 229 222 216 214 210 205 199 210 215 218 187 193 198 192 219 245 225 26 129 158 174 157 154 173 211 219 206 184 183 211 198 171 140 90 88 353 172 192 171 208 158 210 213 229 244 276 110 97 214 269 295 231 170 133 120 158 208 225 222 239 247 242 251 250 255 255 264 72 127 95 83 87 43 2 290 290 54 218 155 141 154 179
231 230 226 226 224 224 226 222 225 225 208 196 205 200 210 184 185 186 204 216 213 268 193 185 174 176 185 177 177 153 108 114 149 4 195 90 100 171 155 128 138 225 211 186 205 196 213 215 214 226 237 200 143 322 230 100 146 234 225 240 180 190 225 218 237 238 247 243 254 261 261 260 258 255 175 161 172 240 273 259 311 166 183 178 173 189 203
232 230 228 226 226 225 224 220 220 226 228 206 199 210 210 183 182 195 207 211 224 234 195 183 208 208 46 60 124 144 173 185 175 167 167 157 190 126 129 222 188 172 194 189 224 210 209 227 225 236 242 236 138 200 282 197 229 292 256 251 229 228 196 257 243 245 248 251 257 254 271 265 247 210 157 158 147 243 252 306 96 157 193 199 196 211 220
233 233 231 229 227 226 225 224 222 223 222 216 202 202 195 181 185 192 196 207 219 237 228 179 204 208 198 163 165 160 166 179 206 193 194 183 104 118 151 144 198 137 193 160 214 212 202 222 217 215 231 233 248 147 277 238 283 201 239 234 254 258 259 238 241 245 245 248 256 260 263 50 112 115 49 219 227 251 300 89 232 165 187 197 218 225 237
236 234 233 232 231 227 226 224 223 222 220 217 207 201 209 194 185 194 203 215 225 247 250 211 204 217 211 212 200 185 175 183 189 205 219 157 173 170 176 207 169 159 187 184 187 213 195 220 216 212 230 226 229 114 218 234 253 244 215 240 259 259 264 257 258 239 263 255 246 235 277 277 171 169 219 241 227 260 286 266 255 213 209 227 236 233 237
235 236 235 234 233 231 228 227 224 224 221 220 211 199 218 193 186 193 203 206 225 233 277 309 206 220 227 228 223 218 218 215 213 213 227 169 185 202 216 79 159 159 195 151 172 200 212 187 229 185 212 218 224 231 220 220 243 163 11 188 250 189 222 228 261 244 262 264 271 280 312 111 184 216 256 278 284 272 250 227 252 274 269 254 263 277 282
239 237 235 234 234 233 233 232 230 226 223 220 215 205 212 159 182 188 179 211 240 295 272 226 229 242 241 239 232 230 233 236 245 232 219 219 210 216 225 188 203 179 187 195 199 210 205 166 209 200 223 226 213 232 206 219 252 231 238 196 230 239 250 240 252 257 260 268 273 282 280 274 273 259 248 260 266 265 265 260 258 255 264 264 268 278 282
242 240 238 235 233 232 231 231 230 228 226 224 214 193 209 187 168 156 188 207 210 237 238 215 224 225 210 216 213 217 225 226 224 225 221 217 231 232 227 233 210 153 202 210 218 241 246 186 219 225 235 216 195 221 225 229 232 236 250 257 244 249 249 249 248 258 265 263 255 250 256 265 269 266 259 248 244 253 260 261 260 267 271 275 276 274 270
242 246 243 238 236 237 234 231 228 229 227 224 224 216 206 196 175 171 168 193 208 209 236 215 213 228 204 208 210 215 218 216 211 213 215 216 221 225 230 225 210 205 213 202 119 109 131 196 212 209 232 219 204 237 223 241 248 208 233 245 252 255 243 251 242 250 245 255 262 264 261 264 266 266 268 268 266 265 261 263 267 267 267 269 272 269 267
238 239 243 246 243 238 236 234 232 227 230 231 222 202 204 205 173 177 187 208 94 180 226 241 259 152 171 182 211 218 212 204 203 202 207 213 219 227 236 249 27 225 237 146 162 193 202 222 218 227 236 242 208 240 240 229 251 236 246 248 240 259 273 249 242 250 252 258 263 265 268 265 264 263 260 263 269 274 275 273 276 281 282 276 257 240 253
247 242 238 235 240 244 246 241 235 235 235 234 228 213 203 200 175 180 184 179 167 268 219 241 204 65 216 210 211 208 207 201 194 197 204 212 220 225 231 234 217 197 179 188 193 206 215 233 216 229 219 236 216 242 248 246 242 242 242 247 248 255 248 242 243 253 252 247 248 252 259 267 270 263 267 274 276 280 280 279 266 271 281 275 256 227 206
239 239 239 242 243 237 235 237 238 236 235 233 231 212 182 186 198 202 195 184 192 222 176 206 229 150 91 278 235 205 194 202 201 196 201 213 216 217 221 222 223 216 215 190 198 204 211 219 228 228 241 245 241 237 229 245 252 252 246 241 230 231 242 236 239 234 242 241 243 244 252 262 267 276 277 271 271 277 280 274 270 277 283 286 277 253 190
240 240 241 240 239 238 237 240 239 240 237 237 199 103 129 218 209 208 212 208 213 233 245 208 60 139 215 233 156 187 199 187 197 202 205 212 214 215 215 213 209 215 221 216 196 210 217 226 220 212 222 180 229 242 225 228 226 229 229 233 234 236 243 243 247 252 253 254 259 259 259 265 273 278 282 283 281 264 258 262 272 279 252 141 236 246 250
244 241 241 243 244 241 235 233 235 238 239 213 96 115 171 233 209 205 198 196 198 194 225 213 218 222 67 94 188 183 182 195 200 206 209 211 215 217 220 215 219 219 216 211 205 215 214 226 225 225 221 161 201 212 222 210 228 233 239 243 244 247 245 245 243 245 252 249 255 260 264 266 271 281 284 279 152 185 235 252 266 233 118 128 196 191 71
247 245 242 239 239 241 239 235 236 236 231 169 132 144 171 247 204 195 196 192 178 196 229 232 241 69 295 212 125 182 182 184 198 204 212 213 212 214 216 214 221 216 217 215 211 217 201 217 221 231 229 215 211 213 210 214 230 241 238 236 243 248 248 246 244 243 247 253 256 258 263 266 272 278 269 255 226 179 213 159 85 65 80 109 105 96 107
251 246 243 242 242 240 238 238 233 233 226 175 192 199 180 292 60 157 184 185 160 174 167 213 224 183 215 215 179 215 183 186 188 199 211 210 218 214 214 208 217 211 214 221 224 231 218 218 217 224 226 219 215 225 207 218 233 238 241 242 244 251 251 253 251 249 246 249 254 259 259 261 260 259 271 62 72 67 92 93 92 96 95 79 69 72 66
248 250 246 243 244 245 244 243 241 232 210 218 233 260 313 315 187 160 174 150 145 158 158 206 201 175 199 199 101 296 177 175 199 199 214 200 215 204 216 209 216 219 211 215 205 220 206 221 227 238 234 225 221 219 209 218 227 234 241 247 250 249 251 251 252 251 250 246 236 238 243 248 247 93 86 91 82 92 105 111 99 93 83 90 99 116 113
250 253 252 245 242 241 243 244 245 243 239 200 210 234 229 192 188 168 158 147 143 170 177 182 180 199 200 106 108 167 158 170 191 187 208 195 195 200 195 182 190 177 197 205 200 205 224 224 226 234 231 225 213 225 234 231 233 241 245 248 249 250 251 253 254 253 249 242 240 249 268 70 92 124 112 124 123 98 90 83 104 107 125 143 185 158 113
248 249 252 253 245 241 245 249 251 234 206 197 231 243 204 183 182 163 143 150 128 203 166 225 174 198 183 162 216 187 173 180 183 184 190 188 171 190 180 164 184 190 211 142 225 215 225 224 231 235 222 214 220 228 233 227 217 231 240 246 246 250 254 256 254 250 248 92 84 82 64 107 148 193 217 177 141 148 129 128 138 144 184 182 173 153 151
250 245 247 250 256 252 259 254 222 223 216 204 211 164 172 178 184 179 176 172 164 166 186 199 183 206 193 193 210 181 143 202 183 156 175 126 155 196 201 192 216 204 143 184 216 203 226 215 216 233 213 213 222 219 230 228 233 234 234 236 236 236 244 245 254 240 86 63 69 75 77 102 215 230 145 151 129 133 158 154 155 155 190 188 181 166 153
258 254 253 261 253 235 221 226 178 199 219 122 136 152 170 143 52 110 193 233 297 338 205 178 193 199 202 215 185 161 152 182 172 159 155 159 178 157 173 200 220 155 168 217 205 217 225 197 219 231 214 225 233 230 231 237 236 240 244 246 247 249 252 253 218 118 112 94 93 137 159 181 201 215 196 184 170 149 153 195 184 174 189 195 180 180 223
255 257 228 177 165 211 230 217 201 158 154 136 124 113 133 140 188 177 185 213 209 119 242 216 223 190 179 192 205 169 152 191 145 157 164 183 152 203 177 216 211 196 221 210 223 193 229 218 220 223 235 233 245 249 244 237 241 242 246 251 254 254 244 91 128 136 146 262 264 206 157 254 233 211 192 190 159 172 179 151 112 122 146 172 196 212 243
246 243 204 197 190 217 223 198 136 142 148 143 158 171 186 173 170 204 184 164 164 211 189 202 208 179 179 196 175 140 182 164 172 174 180 189 163 191 157 190 206 197 240 220 224 144 222 206 211 223 239 236 239 245 242 238 243 242 247 324 63 92 118 117 147 187 212 233 267 87 175 204 214 210 170 150 135 141 141 141 163 169 163 184 206 238 249
189 208 196 182 220 228 86 139 154 139 137 166 184 204 213 181 181 207 140 177 202 231 165 219 204 196 178 186 164 192 187 161 169 192 192 179 179 193 177 166 218 164 218 212 211 144 204 218 194 214 240 227 235 243 244 236 241 228 92 102 84 82 86 107 94 54 79 76 85 86 60 58 37 99 144 150 146 155 159 153 164 161 185 203 227 236 244
194 173 202 216 156 125 196 147 145 136 162 160 186 214 158 218 205 167 150 206 195 194 181 203 166 195 199 186 160 174 164 179 229 135 162 183 145 102 148 181 176 178 223 201 182 121 192 226 221 221 228 227 233 241 244 241 225 98 72 79 82 89 95 89 79 70 83 89 83 80 64 60 71 65 66 80 102 114 130 151 181 197 216 237 233 244 255
201 197 139 77 52 24 93 73 174 149 202 199 194 219 191 216 100 269 206 188 204 171 232 188 193 191 190 180 179 170 171 151 140 174 154 197 179 157 189 167 217 187 214 169 112 175 181 223 223 226 229 237 243 237 168 189 80 91 83 79 85 91 93 94 92 60 60 84 91 91 88 80 73 81 87 108 133 155 193 199 220 226 233 246 258 261 266
238 8 67 141 140 200 203 195 184 197 198 184 145 211 161 165 201 180 204 213 322 181 162 80 340 71 12 109 46 22 151 148 160 177 168 183 118 129 178 188 138 209 186 105 162 175 201 218 229 231 231 236 231 206 110 83 101 100 98 95 92 95 96 100 95 96 81 77 83 88 94 96 87 80 87 98 153 255 247 235 235 238 243 242 252 259 257
185 148 130 149 177 217 174 231 156 112 216 188 187 208 169 196 198 178 208 191 155 165 167 156 172 150 187 187 169 130 99 144 167 97 238 160 135 185 161 200 196 170 61 162 186 204 215 224 222 236 238 206 54 85 114 115 115 112 101 97 100 108 109 109 114 111 105 94 84 83 91 99 121 110 109 183 192 223 255 261 257 255 265 266 252 256 257
142 183 151 190 203 197 140 224 136 190 208 201 201 212 188 205 194 183 197 137 154 166 158 182 169 186 172 136 68 138 147 168 138 171 204 149 223 208 179 206 120 151 170 201 188 225 202 245 236 236 244 232 141 110 119 114 125 127 127 120 120 121 127 127 122 121 118 119 115 118 112 115 120 212 195 220 226 222 247 274 281 276 271 262 263 265 268
193 195 184 188 209 199 194 229 142 199 211 176 201 201 209 213 179 182 144 127 162 149 169 180 181 170 133 135 154 173 118 141 144 199 132 164 163 219 150 58 123 164 204 193 208 208 223 231 235 237 223 135 118 127 116 118 104 111 123 134 139 118 106 112 117 128 135 142 147 139 160 166 209 219 251 248 249 258 255 263 270 267 270 269 264 263 267
200 206 185 233 237 216 173 223 208 211 206 193 196 187 199 195 156 136 145 170 178 168 119 88 109 149 145 151 107 36 169 177 154 184 117 175 187 115 81 149 206 189 183 215 214 229 227 233 233 105 140 135 124 118 116 118 135 129 112 113 127 135 135 133 136 135 123 121 126 155 171 201 220 259 279 281 271 252 252 254 259 258 254 254 266 271 275
215 168 161 201 213 172 202 219 83 59 1 324 3 8 20 26 123 197 219 214 151 110 133 130 121 100 69 309 100 178 140 187 132 223 162 188 69 80 174 194 222 218 211 217 228 214 227 212 126 155 145 131 141 135 134 131 122 128 131 135 136 141 142 144 136 142 134 136 178 192 205 232 242 252 274 285 292 290 266 253 253 252 249 258 258 261 262
147 160 204 235 314 272 257 19 140 217 185 87 279 325 170 149 196 160 119 182 149 156 156 135 153 121 159 125 137 142 210 202 160 194 101 198 180 191 171 207 180 223 229 207 225 225 232 90 112 115 121 131 136 139 131 139 135 135 138 140 144 146 144 145 152 148 159 188 193 195 208 217 228 265 260 270 275 282 302 306 299 293 283 276 275 273 272
156 204 56 102 206 215 72 334 174 230 127 169 175 218 220 230 180 88 179 135 142 117 102 61 43 81 139 112 170 182 196 171 178 130 144 194 192 203 155 216 208 208 212 195 211 113 123 154 126 135 139 132 138 132 140 136 140 131 126 125 125 128 146 148 161 173 188 189 203 205 302 306 274 255 259 275 297 313 311 299 293 284 280 268 260 259 259
328 276 271 24 234 229 130 194 196 200 195 205 196 205 167 216 147 125 114 168 141 133 142 165 168 125 146 112 161 172 220 136 149 191 181 195 149 174 209 221 221 216 216 35 33 69 127 130 156 142 152 156 146 142 137 147 141 136 134 129 135 130 140 152 168 168 198 196 193 221 224 218 248 285 302 316 301 300 295 288 279 265 261 267 255 247 251
147 178 206 176 35 326 286 336 328 315 346 13 101 94 141 205 147 150 318 310 167 163 176 148 130 151 168 194 196 136 59 72 192 117 160 238 160 179 213 223 237 40 37 136 108 96 100 100 102 134 137 136 140 135 113 90 108 88 96 111 114 133 151 162 165 169 154 191 186 204 251 264 287 302 319 300 293 289 281 282 283 279 273 262 269 264 254